Imperial, NE

10:13 PM MST on February 13, 2016 (GMT -0700)
Imperial Municipal

Weather History for KIML - April, 2014

Change the Weather History Date:

Wednesday, April 30, 2014

  Actual Average Record
Temperature  
Mean Temperature 45 °F 54 °F  
Max Temperature 57 °F 67 °F 95 °F (1992)
Min Temperature 33 °F 40 °F 14 °F (1903)
Degree Days  
Heating Degree Days 20 12  
Month to date heating degree days 442 498  
Cooling Degree Days 0 0  
Month to date cooling degree days 1 1  
Year to date cooling degree days 1 1  
Moisture  
Dew Point 24 °F    
Average Humidity 53    
Maximum Humidity 82    
Minimum Humidity 24    
Precipitation  
Precipitation 0.00 in 0.07 in 1.40 in (1911)
Sea Level Pressure  
Sea Level Pressure 30.20 in    
Wind  
Wind Speed 21 mph (NNW)    
Max Wind Speed 40 mph    
Max Gust Speed 47 mph    
Visibility 10 miles    
Events      
T = Trace of Precipitation, MM = Missing Value Source: NWS Daily Summary

Daily Weather History Graph

Daily Weather History Graph

Search for Another Location

Airport or City:

Trip Planner

Search our weather history database for the weather conditions in past years. The results will help you decide how hot, cold, wet, or windy it might be!

Date:

Astronomy

Apr. 30, 2014 Rise Set
Actual Time 5:46 AM MDT 7:41 PM MDT
Civil Twilight 5:17 AM MDT 8:10 PM MDT
Nautical Twilight 4:41 AM MDT 8:46 PM MDT
Astronomical Twilight 4:02 AM MDT 9:25 PM MDT
Moon 6:49 AM MDT (4/30) 9:22 PM MDT (4/30)
Length of Visible Light 14h 53m
Length of Day
13h 54m
Waxing Crescent, 3% of the Moon is Illuminated
Apr 30
Waxing Crescent
May 6
First Quarter
May 14
Full
May 21
Last Quarter
May 28
New

Hourly Weather History & Observations

Time (MDT) Temp. Windchill Dew Point Humidity Pressure Visibility Wind Dir Wind Speed Gust Speed Precip Events Conditions
12:53 AM 34.0 °F 24.2 °F 27.0 °F 75% 30.24 in 10.0 mi NW 15.0 mph - N/A   Partly Cloudy
1:53 AM 34.0 °F 23.8 °F 27.0 °F 75% 30.24 in 10.0 mi NW 16.1 mph - N/A   Partly Cloudy
2:53 AM 34.0 °F 23.8 °F 28.0 °F 79% 30.23 in 10.0 mi NW 16.1 mph - N/A   Scattered Clouds
3:53 AM 34.0 °F 23.8 °F 27.0 °F 75% 30.24 in 10.0 mi NW 16.1 mph - N/A   Mostly Cloudy
4:53 AM 35.1 °F 25.2 °F 26.1 °F 70% 30.23 in 10.0 mi NW 16.1 mph - N/A   Overcast
5:53 AM 35.1 °F 24.8 °F 26.1 °F 70% 30.24 in 10.0 mi NW 17.3 mph 24.2 mph N/A   Overcast
6:53 AM 36.0 °F 26.0 °F 27.0 °F 70% 30.25 in 10.0 mi NW 17.3 mph - N/A   Overcast
7:53 AM 37.0 °F 25.9 °F 27.0 °F 67% 30.25 in 10.0 mi NW 23.0 mph 32.2 mph N/A   Mostly Cloudy
8:53 AM 42.8 °F 32.7 °F 24.8 °F 49% 30.19 in 10.0 mi NNW 27.6 mph 35.7 mph N/A   Clear
9:53 AM 42.1 °F 32.6 °F 23.0 °F 47% 30.25 in 10.0 mi NNW 23.0 mph 32.2 mph N/A   Overcast
10:53 AM 44.1 °F 34.6 °F 21.9 °F 42% 30.24 in 10.0 mi NNW 26.5 mph 35.7 mph N/A   Overcast
11:53 AM 46.0 °F 37.2 °F 21.9 °F 39% 30.22 in 10.0 mi NNW 26.5 mph 36.8 mph N/A   Overcast
12:53 PM 51.1 °F - 21.0 °F 31% 30.19 in 10.0 mi NNW 25.3 mph 40.3 mph N/A   Mostly Cloudy
1:53 PM 51.1 °F - 19.9 °F 29% 30.17 in 10.0 mi NNW 31.1 mph 39.1 mph N/A   Mostly Cloudy
2:53 PM 53.1 °F - 19.0 °F 26% 30.15 in 10.0 mi North 32.2 mph 44.9 mph N/A   Scattered Clouds
3:53 PM 55.0 °F - 19.9 °F 25% 30.13 in 10.0 mi North 31.1 mph 41.4 mph N/A   Scattered Clouds
4:53 PM 54.0 °F - 18.0 °F 24% 30.13 in 10.0 mi North 34.5 mph 47.2 mph N/A   Partly Cloudy
5:53 PM 53.1 °F - 19.9 °F 27% 30.14 in 10.0 mi North 33.4 mph 43.7 mph N/A   Clear
6:53 PM 48.0 °F - 23.0 °F 37% 30.17 in 10.0 mi North 20.7 mph 31.1 mph N/A   Clear
7:53 PM 45.0 °F 38.2 °F 24.1 °F 44% 30.19 in 10.0 mi North 15.0 mph - N/A   Scattered Clouds
8:53 PM 45.0 °F 38.5 °F 26.1 °F 48% 30.20 in 10.0 mi North 13.8 mph - N/A   Overcast
9:53 PM 44.1 °F 38.6 °F 26.1 °F 49% 30.21 in 10.0 mi NNW 10.4 mph - N/A   Overcast
10:53 PM 44.1 °F 38.6 °F 26.1 °F 49% 30.20 in 10.0 mi NW 10.4 mph - N/A   Overcast
11:53 PM 42.1 °F 35.2 °F 26.1 °F 53% 30.20 in 10.0 mi WNW 12.7 mph - N/A   Mostly Cloudy